This demonstration page uses our WeatherBlox Daily Observations layout. Learn more.

Left ArrowRight Arrow

38.89511, -77.03637

Hourly Observations for January 7, 2019

Temp ( °F °C ) Dew Point ( °F °C ) Humidity (%) Winds ( mph kmh ) Pressure ( in mb ) Visibility ( mi km ) Precip ( " mm )
12:52 am 00:52 Mostly Cloudy 40 4.4 24 -4.4 53 53 N 12 19 30.36 1028 10 16 0.00 0.00
1:52 am 01:52 Mostly Cloudy 39 3.9 23 -5 53 53 N 12 19 30.39 1029 10 16 0.00 0.00
2:52 am 02:52 Mostly Cloudy 36 2.2 23 -5 59 59 NNW 7 11 30.41 1030 10 16 0.00 0.00
3:52 am 03:52 Cloudy 36 2.2 23 -5 59 59 NNW 8 13 30.41 1030 10 16 0.00 0.00
4:52 am 04:52 Cloudy 38 3.3 23 -5 55 55 NNE 12 19 30.42 1030 10 16 0.00 0.00
5:52 am 05:52 Cloudy 37 2.8 23 -5 57 57 NE 12 19 30.45 1031 10 16 0.00 0.00
6:52 am 06:52 Mostly Cloudy 37 2.8 23 -5 57 57 NNE 9 15 30.48 1032 10 16 0.00 0.00
7:52 am 07:52 Mostly Cloudy 36 2.2 20 -6.7 52 52 NE 14 22 30.49 1033 10 16 0.00 0.00
8:52 am 08:52 Cloudy 36 2.2 20 -6.7 52 52 E 8 13 30.52 1033 10 16 0.00 0.00
9:52 am 09:52 Cloudy 38 3.3 20 -6.7 48 48 NE 9 15 30.52 1033 10 16 0.00 0.00
10:52 am 10:52 Cloudy 38 3.3 22 -5.6 52 52 ENE 8 13 30.50 1033 10 16 0.00 0.00
11:52 am 11:52 Cloudy 38 3.3 21 -6.1 51 51 ESE 6 9 30.45 1031 10 16 0.00 0.00
12:52 pm 12:52 Cloudy 39 3.9 22 -5.6 50 50 ESE 6 9 30.43 1031 10 16 0.00 0.00
1:52 pm 13:52 Cloudy 39 3.9 22 -5.6 50 50 ESE 6 9 30.42 1030 10 16 0.00 0.00
2:52 pm 14:52 Cloudy 39 3.9 22 -5.6 50 50 SE 9 15 30.40 1030 10 16 0.00 0.00
3:52 pm 15:52 Cloudy 38 3.3 19 -7.2 46 46 SE 8 13 30.42 1030 10 16 0.00 0.00
4:52 pm 16:52 Cloudy 38 3.3 20 -6.7 48 48 ESE 12 19 30.38 1029 10 16 0.00 0.00
5:52 pm 17:52 Cloudy 38 3.3 21 -6.1 51 51 SE 9 15 30.36 1028 10 16 0.00 0.00
6:52 pm 18:52 Cloudy 37 2.8 22 -5.6 54 54 SSE 8 13 30.35 1028 10 16 0.00 0.00
7:52 pm 19:52 Cloudy 38 3.3 24 -4.4 57 57 SSE 10 17 30.34 1027 10 16 0.00 0.00
8:52 pm 20:52 Cloudy 38 3.3 27 -2.8 65 65 SSE 10 17 30.30 1026 10 16 0.00 0.00
9:52 pm 21:52 Cloudy 39 3.9 28 -2.2 65 65 SSE 9 15 30.30 1026 10 16 0.00 0.00
10:52 pm 22:52 Cloudy 39 3.9 30 -1.1 70 70 SSE 8 13 30.25 1024 10 16 0.00 0.00
11:52 pm 23:52 Cloudy with Light Rain 39 3.9 31 -0.6 73 73 SSE 16 26 30.19 1022 10 16 0.00 0.03

Powered by AerisWeather